Regional Weather Roundup
Issued by NWS Little Rock, AR

Home | Current Version | Previous Version | Graphics & Text | Print | Product List | Glossary On
Versions: 1 2 3 4 5 6 7 8 9 10 11 12 13 14 15 16 17 18 19 20 21 22 23 24 25 26 27 28 29 30 31 32 33 34 35 36 37 38 39 40 41 42 43 44 45 46 47 48 49
000
ASUS44 KLZK 271905
RWRLZK

WEATHER ROUNDUP FOR ARKANSAS
NATIONAL WEATHER SERVICE LITTLE ROCK AR
100 PM CST FRI FEB 27 2015

NOTE: "FAIR" INDICATES FEW OR NO CLOUDS BELOW 12,000 FEET WITH NO
SIGNIFICANT WEATHER AND/OR OBSTRUCTIONS TO VISIBILITY.

ARZ001-003-010-029-272000-
NORTHWEST ARKANSAS

CITY           SKY/WX    TMP DP  RH WIND       PRES   REMARKS
FAYETTEVILLE   CLOUDY    20   3  48 N6        30.54R WCI  12
FORT SMITH     CLOUDY    24   4  42 CALM      30.59R
HARRISON       CLOUDY    19   2  47 VRB5      30.51F WCI  12
BENTONVILLE    CLOUDY    19   0  42 N5        30.54S WCI  13
ROGERS         CLOUDY    18   2  49 NE7       30.54S WCI   9
SILOAM SPGS    CLOUDY    19   0  42 NE3       30.56R
HIGHFILL       CLOUDY    20   1  43 VRB5      30.53S WCI  13
SPRINGDALE     PTSUNNY   19   1  45 N7        30.54F WCI  10
$$

ARZ004-005-016-272000-
NORTH CENTRAL ARKANSAS

CITY           SKY/WX    TMP DP  RH WIND       PRES   REMARKS
BATESVILLE     SUNNY     28   3  34 SE6       30.57F WCI  22
FLIPPIN        CLOUDY    21   0  39 NE7       30.55F WCI  13
MTN HOME       CLOUDY    21   1  41 NE9       30.53F WCI  11
$$

ARZ040-041-272000-
WEST CENTRAL ARKANSAS

CITY           SKY/WX    TMP DP  RH WIND       PRES   REMARKS
MENA           CLOUDY    30  10  43 CALM      30.52R
MOUNT IDA      PTSUNNY   29  10  45 VRB3      30.51R
$$

ARZ009-017-025-026-028-272000-
NORTHEAST ARKANSAS

CITY           SKY/WX    TMP DP  RH WIND       PRES   REMARKS
CORNING        FAIR      23  10  58 NE9G16    30.63S WCI  13
JONESBORO      SUNNY     24  14  65 NE14      30.60F WCI  12
NEWPORT        SUNNY     25  13  60 NE8       30.61F WCI  16
WALNUT RIDGE   SUNNY     23   9  54 NE8       30.61S WCI  14
BLYTHEVILLE    PTSUNNY   25  16  68 N10       30.60F WCI  15
NW BLYTHEVILLE PTSUNNY   25  16  68 N12       30.61F WCI  14
$$

ARZ022-023-033-042-044-272000-
CENTRAL ARKANSAS

CITY           SKY/WX    TMP DP  RH WIND       PRES   REMARKS
LITTLE ROCK    CLOUDY    29  10  45 NE13      30.56F WCI  19
N LITTLE ROCK  CLOUDY    29  13  51 NE12G17   30.56F WCI  19
JACKSONVILLE   CLOUDY    28   8  42 NE13      30.55F WCI  18
SEARCY         MOSUNNY   27  11  51 NE12G17   30.58F WCI  17
HOT SPRINGS    CLOUDY    29  10  45 CALM      30.52F
RUSSELLVILLE   CLOUDY    28   4  35 VRB5      30.55F WCI  23
CLINTON        FAIR      28   0  29 NE7       30.55F WCI  21
$$

ARZ036-272000-
EAST ARKANSAS

CITY           SKY/WX    TMP DP  RH WIND       PRES   REMARKS
WEST MEMPHIS   MOSUNNY   30  17  58 VRB7      30.54F WCI  23
$$

ARZ050-053-066-070-073-272000-
SOUTHWEST ARKANSAS

CITY           SKY/WX    TMP DP  RH WIND       PRES   REMARKS
ARKADELPHIA    FAIR      32  16  52 NE8       30.54S WCI  25
CAMDEN         PTSUNNY   36  14  41 MISG      30.51F
TEXARKANA      CLOUDY    29  15  56 N8        30.54R WCI  21
EL DORADO      PTSUNNY   33  20  58 NE8       30.49F WCI  26
DE QUEEN       CLOUDY    30  11  45 E3        30.55R
$$

ARZ056-057-069-272000-
SOUTHEAST ARKANSAS

CITY           SKY/WX    TMP DP  RH WIND       PRES   REMARKS
PINE BLUFF     MOSUNNY   27  17  66 NE13      30.53F WCI  16
STUTTGART      PTSUNNY   28  18  64 NE13      30.56F WCI  18
MONTICELLO     SUNNY     33  20  58 NE12G20   30.50F WCI  24

$$





USA.gov is the U.S. government's official web portal to all federal, state and local government web resources and services.